Weather History for KVSH - April, 2013

Change the Weather History Date:

Monday, April 8, 2013

  Actual Average (KMAI) Record (KMAI)
Temperature  
Mean Temperature 73 °F 65 °F  
Max Temperature 80 °F 78 °F 91 °F (2011)
Min Temperature 66 °F 52 °F 34 °F (2007)
Degree Days  
Heating Degree Days 0    
Month to date heating degree days  
Since 1 July heating degree days  
Cooling Degree Days 8    
Month to date cooling degree days  
Year to date cooling degree days  
Growing Degree Days 23 (Base 50)    
Moisture  
Dew Point 62 °F    
Average Humidity 77    
Maximum Humidity 88    
Minimum Humidity 51    
Precipitation  
Precipitation 0.00 in 0.16 in 2.33 in (2003)
Month to date precipitation 1.33  
Year to date precipitation 16.85  
Sea Level Pressure  
Sea Level Pressure 29.99 in    
Wind  
Wind Speed 5 mph (SE)    
Max Wind Speed 15 mph    
Max Gust Speed 23 mph    
Visibility 10 miles    
Events      
T = Trace of Precipitation, MM = Missing Value Source: NWS Daily Summary

Daily Weather History Graph

Daily Weather History Graph

Search for Another Location

Airport or City:

Trip Planner

Search our weather history database for the weather conditions in past years. The results will help you decide how hot, cold, wet, or windy it might be!

Date:

Astronomy

Apr. 08, 2013 Rise Set
Actual Time 6:22 AM CDT 7:06 PM CDT
Civil Twilight 5:58 AM CDT 7:30 PM CDT
Nautical Twilight 5:29 AM CDT 7:59 PM CDT
Astronomical Twilight 4:59 AM CDT 8:28 PM CDT
Moon 5:06 AM CDT (4/8) 5:43 PM CDT (4/8)
Length of Visible Light 13h 32m
Length of Day
12h 43m
Waning Crescent, 3% of the Moon is Illuminated
Apr 8
Waning Crescent
Apr 10
New
Apr 18
First Quarter
Apr 25
Full
May 2
Last Quarter

Hourly Weather History & Observations

Time (CDT) Temp. Heat Index Dew Point Humidity Pressure Visibility Wind Dir Wind Speed Gust Speed Precip Events Conditions
12:15 AM - - - N/A% 30.01 in 10.0 mi Calm Calm - N/A   Clear
12:35 AM - - - N/A% 30.00 in 10.0 mi Calm Calm - N/A   Clear
12:55 AM - - - N/A% 29.99 in 10.0 mi South 5.8 mph - N/A   Clear
1:15 AM - - - N/A% 29.99 in 10.0 mi South 6.9 mph - N/A   Clear
1:35 AM - - - N/A% 29.99 in 10.0 mi South 4.6 mph - N/A   Clear
1:55 AM - - - N/A% 29.99 in 10.0 mi South 4.6 mph - N/A   Clear
2:15 AM - - - N/A% 29.98 in 10.0 mi SSE 3.5 mph - N/A   Clear
2:35 AM 66.2 °F - 59.0 °F 78% 29.98 in 10.0 mi Calm Calm - N/A   Clear
2:55 AM - - - N/A% 29.97 in 10.0 mi East 3.5 mph - N/A   Unknown
3:15 AM 66.2 °F - 60.8 °F 83% 29.97 in 10.0 mi Calm Calm - N/A   Clear
3:35 AM 66.2 °F - 60.8 °F 83% 29.97 in 10.0 mi Calm Calm - N/A   Clear
3:55 AM 66.2 °F - 60.8 °F 83% 29.96 in 10.0 mi ESE 4.6 mph - N/A   Clear
4:15 AM - - - N/A% 29.96 in 10.0 mi SE 3.5 mph - N/A   Clear
4:35 AM 66.2 °F - 60.8 °F 83% 29.97 in 10.0 mi SSE 4.6 mph - N/A   Clear
4:55 AM 66.2 °F - 60.8 °F 83% 29.98 in 10.0 mi SE 3.5 mph - N/A   Clear
5:15 AM 66.2 °F - 60.8 °F 83% 29.97 in 10.0 mi East 4.6 mph - N/A   Clear
5:35 AM 66.2 °F - 60.8 °F 83% 29.98 in 10.0 mi ESE 4.6 mph - N/A   Clear
5:55 AM 66.2 °F - 60.8 °F 83% 29.98 in 10.0 mi SE 4.6 mph - N/A   Clear
6:15 AM 66.2 °F - 60.8 °F 83% 29.99 in 10.0 mi SE 4.6 mph - N/A   Clear
6:35 AM 66.2 °F - 60.8 °F 83% 29.99 in 10.0 mi ESE 3.5 mph - N/A   Scattered Clouds
6:55 AM 66.2 °F - 60.8 °F 83% 29.99 in 10.0 mi ESE 4.6 mph - N/A   Partly Cloudy
7:15 AM 66.2 °F - 60.8 °F 83% 30.00 in 10.0 mi East 3.5 mph - N/A   Clear
7:35 AM 66.2 °F - 60.8 °F 83% 30.00 in 10.0 mi SE 4.6 mph - N/A   Clear
7:55 AM 66.2 °F - 62.6 °F 88% 30.01 in 10.0 mi SE 5.8 mph - N/A   Partly Cloudy
8:15 AM 66.2 °F - 62.6 °F 88% 30.01 in 10.0 mi SE 4.6 mph - N/A   Mostly Cloudy
8:35 AM 68.0 °F - 62.6 °F 83% 30.01 in 10.0 mi SE 4.6 mph - N/A   Scattered Clouds
8:55 AM 69.8 °F - 62.6 °F 78% 30.01 in 10.0 mi ESE 4.6 mph - N/A   Scattered Clouds
9:15 AM 71.6 °F - 64.4 °F 78% 30.01 in 10.0 mi SE 4.6 mph - N/A   Scattered Clouds
9:35 AM 73.4 °F - 64.4 °F 73% 30.01 in 10.0 mi SSE 6.9 mph - N/A   Partly Cloudy
9:55 AM 73.4 °F - 64.4 °F 73% 30.01 in 10.0 mi SSE 10.4 mph 19.6 mph N/A   Partly Cloudy
10:15 AM 75.2 °F - 64.4 °F 69% 30.02 in 10.0 mi South 10.4 mph 16.1 mph N/A   Partly Cloudy
10:35 AM 75.2 °F - 62.6 °F 65% 30.03 in 10.0 mi South 13.8 mph 19.6 mph N/A   Scattered Clouds
10:55 AM 75.2 °F - 64.4 °F 69% 30.04 in 10.0 mi SSE 9.2 mph 19.6 mph N/A   Mostly Cloudy
11:15 AM 77.0 °F - 64.4 °F 65% 30.04 in 10.0 mi SSE 10.4 mph - N/A   Unknown
11:35 AM 78.8 °F - 64.4 °F 61% 30.05 in 10.0 mi SSE 11.5 mph 18.4 mph N/A   Unknown
11:55 AM 78.8 °F - 60.8 °F 54% 30.04 in 10.0 mi SSE 12.7 mph 23.0 mph N/A   Mostly Cloudy
12:15 PM 80.6 °F 81.5 °F 60.8 °F 51% 30.03 in 10.0 mi SSE 12.7 mph 19.6 mph N/A   Mostly Cloudy
12:35 PM - - - N/A% 30.03 in 10.0 mi South 11.5 mph 21.9 mph N/A   Mostly Cloudy
12:55 PM - - - N/A% 30.02 in 10.0 mi South 11.5 mph 19.6 mph N/A   Mostly Cloudy
1:15 PM - - - N/A% 30.02 in 10.0 mi South 11.5 mph 20.7 mph N/A   Overcast
1:35 PM - - - N/A% 30.01 in 10.0 mi SSE 13.8 mph 21.9 mph N/A   Mostly Cloudy
1:55 PM - - - N/A% 30.01 in 10.0 mi SSE 15.0 mph 21.9 mph N/A   Mostly Cloudy
2:15 PM - - - N/A% 30.00 in 10.0 mi SSE 9.2 mph 21.9 mph N/A   Overcast
2:35 PM - - - N/A% 30.00 in 10.0 mi SSE 13.8 mph 19.6 mph N/A   Overcast
2:55 PM - - - N/A% 29.99 in 10.0 mi South 11.5 mph - N/A   Overcast
3:15 PM - - - N/A% 29.99 in 10.0 mi SSE 6.9 mph - N/A   Overcast
3:35 PM - - - N/A% 29.98 in 10.0 mi SSE 8.1 mph - N/A   Overcast
3:55 PM - - - N/A% 29.97 in 10.0 mi SE 9.2 mph - N/A   Mostly Cloudy
4:15 PM - - - N/A% 29.97 in 10.0 mi SE 3.5 mph 19.6 mph N/A   Mostly Cloudy
4:35 PM - - - N/A% 29.97 in 10.0 mi SSE 6.9 mph 17.3 mph N/A   Mostly Cloudy
4:55 PM - - - N/A% 29.97 in 10.0 mi South 13.8 mph 18.4 mph N/A   Overcast
5:15 PM - - - N/A% 29.98 in 10.0 mi SSE 4.6 mph - N/A   Overcast
5:35 PM - - - N/A% 29.98 in 10.0 mi SSE 8.1 mph - N/A   Mostly Cloudy
5:55 PM - - - N/A% 29.99 in 10.0 mi SSE 5.8 mph - N/A   Mostly Cloudy
6:15 PM - - - N/A% 29.99 in 10.0 mi SSE 4.6 mph - N/A   Mostly Cloudy
6:35 PM - - - N/A% 29.99 in 10.0 mi East 4.6 mph - N/A   Mostly Cloudy
6:55 PM - - - N/A% 29.99 in 10.0 mi East 4.6 mph - N/A   Mostly Cloudy
7:15 PM - - - N/A% 29.98 in 10.0 mi SE 4.6 mph - N/A   Mostly Cloudy
7:35 PM 73.4 °F - 66.2 °F 78% 29.99 in 10.0 mi East 5.8 mph - N/A   Mostly Cloudy
7:55 PM - - - N/A% 29.99 in 10.0 mi SSE 4.6 mph - N/A   Mostly Cloudy
8:15 PM - - - N/A% 29.97 in 10.0 mi SE 5.8 mph - N/A   Mostly Cloudy
8:35 PM - - - N/A% 29.97 in 10.0 mi SE 5.8 mph - N/A   Partly Cloudy
8:55 PM - - - N/A% 29.97 in 10.0 mi SE 6.9 mph - N/A   Partly Cloudy
9:15 PM 73.4 °F - 66.2 °F 78% 29.97 in 10.0 mi SE 4.6 mph - N/A   Scattered Clouds
9:35 PM - - - N/A% 29.97 in 10.0 mi SE 5.8 mph - N/A   Mostly Cloudy
9:55 PM - - - N/A% 29.97 in 10.0 mi SE 6.9 mph - N/A   Scattered Clouds
10:15 PM 71.6 °F - 66.2 °F 83% 29.98 in 10.0 mi ESE 5.8 mph - N/A   Scattered Clouds
10:35 PM - - - N/A% 29.96 in 10.0 mi East 3.5 mph - N/A   Mostly Cloudy
10:55 PM - - - N/A% 29.97 in 10.0 mi SSE 4.6 mph - N/A   Overcast
11:15 PM - - - N/A% 29.98 in 10.0 mi SE 5.8 mph - N/A   Overcast
11:35 PM - - - N/A% 29.98 in 10.0 mi SSE 4.6 mph - N/A   Overcast
11:55 PM - - - N/A% 29.98 in 10.0 mi Calm Calm - N/A   Overcast